QPF
0.03 0.02 0.01 0.01 0.02 0.03 0.03 0.04 0.03 0.04 0.05 0.03 0.02 0.01 0.01 0.01 0.00 0.01 0.02 0.04 0.04 0.05 0.07 0.09 0.09 0.07 0.06 0.06 0.06 0.05 0.04 0.05 0.07 0.07 0.06 0.05 0.05 0.05 0.05 0.07 0.08 0.07 0.07
0.04 0.02 0.02 0.02 0.02 0.02 0.03 0.03 0.03 0.03 0.04 0.04 0.03 0.02 0.01 0.01 0.01 0.01 0.03 0.04 0.03 0.03 0.05 0.07 0.09 0.09 0.08 0.06 0.05 0.05 0.04 0.05 0.06 0.06 0.06 0.07 0.05 0.04 0.04 0.04 0.05 0.07 0.08
0.05 0.03 0.02 0.02 0.02 0.02 0.04 0.04 0.04 0.04 0.04 0.04 0.05 0.03 0.01 0.01 0.01 0.01 0.01 0.01 0.01 0.02 0.02 0.04 0.06 0.08 0.09 0.08 0.07 0.05 0.05 0.05 0.05 0.06 0.06 0.06 0.05 0.04 0.03 0.03 0.04 0.05 0.07
0.04 0.03 0.02 0.02 0.02 0.04 0.04 0.04 0.03 0.03 0.03 0.05 0.06 0.05 0.02 0.01 0.01 0.01 0.01 0.01 0.00 0.01 0.01 0.02 0.04 0.06 0.09 0.10 0.09 0.08 0.07 0.06 0.05 0.06 0.06 0.06 0.06 0.05 0.05 0.05 0.04 0.04 0.05
0.03 0.03 0.03 0.04 0.04 0.05 0.05 0.04 0.03 0.02 0.02 0.02 0.04 0.04 0.03 0.01 0.01 0.00 0.01 0.01 0.01 0.01 0.01 0.02 0.03 0.04 0.06 0.11 0.11 0.10 0.09 0.08 0.06 0.06 0.06 0.06 0.06 0.06 0.05 0.05 0.05 0.05 0.04
0.04 0.04 0.04 0.05 0.05 0.04 0.04 0.03 0.02 0.02 0.01 0.02 0.01 0.01 0.01 0.00 0.00 0.00 0.00 0.00 0.00 0.01 0.01 0.02 0.02 0.03 0.05 0.09 0.13 0.12 0.10 0.11 0.10 0.08 0.07 0.05 0.05 0.05 0.05 0.05 0.05 0.05 0.04
0.05 0.05 0.04 0.04 0.05 0.04 0.04 0.03 0.02 0.02 0.02 0.01 0.01 0.00 0.00 0.00 0.00 0.00 0.00 0.00 0.01 0.01 0.01 0.02 0.03 0.03 0.03 0.04 0.06 0.09 0.10 0.12 0.14 0.12 0.08 0.05 0.04 0.04 0.05 0.06 0.06 0.05 0.04
0.05 0.05 0.04 0.04 0.04 0.04 0.04 0.04 0.03 0.02 0.02 0.01 0.01 0.00 0.00 0.00 0.01 0.01 0.01 0.01 0.02 0.02 0.02 0.02 0.03 0.02 0.02 0.01 0.02 0.03 0.05 0.06 0.08 0.10 0.10 0.09 0.06 0.05 0.05 0.05 0.04 0.05 0.04
0.07 0.06 0.05 0.04 0.03 0.03 0.04 0.04 0.04 0.04 0.03 0.02 0.01 0.01 0.01 0.00 0.00 0.01 0.03 0.04 0.04 0.03 0.02 0.01 0.01 0.01 0.01 0.01 0.01 0.01 0.02 0.03 0.03 0.04 0.06 0.07 0.08 0.08 0.06 0.05 0.05 0.05 0.05
0.07 0.06 0.05 0.04 0.03 0.02 0.04 0.06 0.06 0.05 0.04 0.03 0.02 0.01 0.01 0.01 0.01 0.01 0.03 0.04 0.03 0.02 0.01 0.01 0.01 0.01 0.01 0.01 0.01 0.01 0.01 0.02 0.02 0.02 0.03 0.03 0.03 0.05 0.07 0.08 0.07 0.07 0.07
0.06 0.05 0.04 0.03 0.02 0.02 0.01 0.02 0.03 0.05 0.06 0.05 0.03 0.02 0.01 0.01 0.00 0.01 0.02 0.02 0.02 0.02 0.02 0.01 0.01 0.01 0.01 0.01 0.01 0.00 0.01 0.01 0.01 0.01 0.02 0.02 0.03 0.03 0.03 0.04 0.06 0.08 0.09
0.04 0.04 0.04 0.03 0.03 0.03 0.02 0.01 0.01 0.02 0.04 0.04 0.04 0.03 0.03 0.02 0.01 0.01 0.01 0.01 0.02 0.02 0.01 0.01 0.01 0.01 0.01 0.01 0.01 0.01 0.01 0.01 0.01 0.01 0.01 0.01 0.02 0.02 0.02 0.02 0.03 0.05 0.07
0.06 0.05 0.04 0.03 0.03 0.03 0.03 0.03 0.04 0.03 0.02 0.03 0.03 0.03 0.04 0.03 0.03 0.02 0.02 0.02 0.02 0.01 0.01 0.00 0.00 0.00 0.01 0.01 0.01 0.01 0.01 0.01 0.00 0.01 0.01 0.01 0.01 0.01 0.02 0.02 0.02 0.03 0.04
0.05 0.05 0.04 0.04 0.03 0.03 0.04 0.03 0.04 0.04 0.04 0.03 0.03 0.03 0.03 0.04 0.03 0.02 0.02 0.03 0.02 0.01 0.00 0.00 0.00 0.00 0.00 0.01 0.01 0.01 0.00 0.01 0.01 0.01 0.01 0.01 0.01 0.01 0.01 0.01 0.01 0.02 0.02
0.04 0.03 0.03 0.03 0.04 0.04 0.04 0.03 0.02 0.04 0.05 0.04 0.03 0.02 0.03 0.04 0.03 0.02 0.02 0.02 0.02 0.01 0.00 0.00 0.00 0.00 0.01 0.00 0.01 0.01 0.01 0.01 0.01 0.01 0.01 0.01 0.01 0.01 0.01 0.01 0.01 0.01 0.02
0.03 0.03 0.03 0.03 0.03 0.03 0.03 0.03 0.03 0.04 0.05 0.03 0.03 0.02 0.02 0.02 0.02 0.02 0.01 0.01 0.02 0.01 0.01 0.01 0.00 0.00 0.00 0.00 0.00 0.01 0.01 0.01 0.01 0.01 0.01 0.01 0.01 0.01 0.01 0.01 0.01 0.01 0.02
0.03 0.02 0.02 0.03 0.02 0.02 0.03 0.02 0.02 0.03 0.04 0.02 0.02 0.03 0.02 0.02 0.02 0.02 0.01 0.01 0.01 0.01 0.01 0.01 0.01 0.00 0.00 0.00 0.01 0.01 0.01 0.01 0.01 0.01 0.02 0.01 0.01 0.01 0.01 0.01 0.02 0.02 0.02
0.02 0.01 0.01 0.02 0.02 0.02 0.02 0.03 0.04 0.04 0.04 0.03 0.03 0.03 0.03 0.03 0.03 0.02 0.02 0.02 0.02 0.02 0.02 0.02 0.01 0.01 0.00 0.00 0.01 0.01 0.01 0.01 0.01 0.02 0.02 0.03 0.02 0.02 0.01 0.01 0.02 0.03 0.03
0.02 0.01 0.01 0.02 0.03 0.03 0.02 0.03 0.04 0.05 0.04 0.04 0.04 0.03 0.03 0.03 0.04 0.04 0.04 0.04 0.04 0.04 0.04 0.04 0.03 0.02 0.01 0.01 0.01 0.01 0.01 0.01 0.01 0.02 0.03 0.03 0.03 0.02 0.01 0.01 0.01 0.01 0.02
0.03 0.03 0.03 0.04 0.03 0.03 0.03 0.03 0.04 0.04 0.05 0.05 0.05 0.05 0.07 0.08 0.09 0.08 0.06 0.06 0.06 0.05 0.05 0.04 0.02 0.01 0.01 0.01 0.01 0.01 0.01 0.01 0.01 0.01 0.02 0.04 0.03 0.02 0.02 0.02 0.01 0.02 0.02
0.04 0.03 0.04 0.04 0.04 0.04 0.04 0.05 0.05 0.04 0.05 0.05 0.05 0.06 0.07 0.08 0.08 0.07 0.06 0.05 0.04 0.04 0.03 0.03 0.02 0.01 0.01 0.01 0.01 0.01 0.01 0.01 0.01 0.01 0.02 0.03 0.04 0.03 0.03 0.04 0.04 0.04 0.04
0.03 0.03 0.03 0.04 0.04 0.03 0.04 0.04 0.04 0.04 0.04 0.05 0.04 0.03 0.03 0.02 0.02 0.01 0.02 0.02 0.03 0.03 0.03 0.03 0.03 0.02 0.01 0.01 0.01 0.02 0.02 0.02 0.02 0.01 0.02 0.02 0.04 0.05 0.05 0.05 0.06 0.05 0.04
0.02 0.02 0.02 0.02 0.02 0.02 0.02 0.02 0.02 0.02 0.02 0.02 0.03 0.02 0.01 0.00 0.00 0.01 0.01 0.01 0.01 0.01 0.01 0.02 0.02 0.01 0.02 0.02 0.02 0.02 0.02 0.02 0.02 0.03 0.03 0.03 0.04 0.05 0.07 0.08 0.08 0.06 0.06
0.02 0.01 0.01 0.01 0.01 0.02 0.03 0.01 0.02 0.02 0.01 0.01 0.01 0.01 0.01 0.01 0.01 0.02 0.03 0.03 0.02 0.02 0.02 0.02 0.02 0.02 0.02 0.01 0.01 0.02 0.03 0.02 0.02 0.03 0.04 0.04 0.04 0.04 0.06 0.08 0.07 0.05 0.05
0.02 0.01 0.01 0.01 0.01 0.02 0.02 0.02 0.02 0.01 0.01 0.01 0.01 0.01 0.01 0.01 0.02 0.05 0.04 0.03 0.02 0.02 0.02 0.01 0.01 0.01 0.01 0.01 0.01 0.02 0.02 0.03 0.02 0.02 0.03 0.04 0.04 0.04 0.05 0.06 0.07 0.06 0.04
0.02 0.01 0.02 0.02 0.02 0.02 0.02 0.02 0.01 0.01 0.01 0.01 0.00 0.01 0.01 0.01 0.01 0.01 0.01 0.01 0.01 0.01 0.01 0.01 0.01 0.01 0.01 0.01 0.01 0.01 0.02 0.02 0.03 0.04 0.04 0.04 0.06 0.07 0.07 0.06 0.06 0.06 0.05
MSLP
1011.86 1012.21 1012.51 1012.75 1012.93 1013.06 1013.14 1013.17 1013.17 1013.16 1013.14 1013.12 1013.10 1013.09 1013.06 1013.01 1012.92 1012.80 1012.64 1012.46 1012.28 1012.12 1012.01 1011.97 1012.01 1012.14 1012.33 1012.57 1012.84 1013.11 1013.38 1013.63 1013.86 1014.10 1014.35 1014.61 1014.89 1015.18 1015.48 1015.76 1016.02 1016.24 1016.44
1011.35 1011.66 1011.94 1012.20 1012.43 1012.61 1012.75 1012.83 1012.87 1012.88 1012.87 1012.86 1012.83 1012.80 1012.75 1012.68 1012.56 1012.39 1012.19 1011.97 1011.75 1011.56 1011.43 1011.37 1011.41 1011.53 1011.72 1011.96 1012.21 1012.47 1012.72 1012.95 1013.19 1013.43 1013.70 1014.00 1014.32 1014.66 1015.00 1015.32 1015.60 1015.84 1016.04
1010.79 1011.05 1011.33 1011.62 1011.90 1012.15 1012.35 1012.49 1012.58 1012.62 1012.63 1012.61 1012.57 1012.53 1012.45 1012.35 1012.20 1012.00 1011.76 1011.50 1011.24 1011.03 1010.87 1010.80 1010.83 1010.94 1011.11 1011.33 1011.56 1011.79 1012.01 1012.22 1012.44 1012.69 1012.97 1013.30 1013.66 1014.05 1014.43 1014.79 1015.11 1015.37 1015.59
1010.23 1010.45 1010.73 1011.05 1011.38 1011.69 1011.95 1012.15 1012.28 1012.34 1012.35 1012.32 1012.28 1012.21 1012.12 1012.00 1011.83 1011.61 1011.34 1011.06 1010.78 1010.54 1010.36 1010.27 1010.28 1010.36 1010.51 1010.70 1010.90 1011.09 1011.27 1011.45 1011.65 1011.88 1012.17 1012.52 1012.91 1013.34 1013.76 1014.17 1014.52 1014.82 1015.06
1009.76 1009.94 1010.20 1010.54 1010.90 1011.25 1011.56 1011.79 1011.93 1012.00 1012.01 1011.97 1011.91 1011.84 1011.74 1011.61 1011.44 1011.21 1010.95 1010.65 1010.36 1010.10 1009.90 1009.78 1009.76 1009.81 1009.92 1010.07 1010.22 1010.37 1010.51 1010.65 1010.82 1011.04 1011.33 1011.69 1012.10 1012.56 1013.02 1013.47 1013.86 1014.19 1014.47
1009.42 1009.56 1009.81 1010.14 1010.51 1010.88 1011.19 1011.42 1011.56 1011.61 1011.60 1011.55 1011.49 1011.41 1011.32 1011.20 1011.04 1010.83 1010.57 1010.28 1009.98 1009.70 1009.48 1009.33 1009.26 1009.27 1009.34 1009.43 1009.54 1009.64 1009.74 1009.85 1010.00 1010.20 1010.48 1010.84 1011.27 1011.75 1012.25 1012.73 1013.16 1013.53 1013.84
1009.28 1009.38 1009.60 1009.91 1010.26 1010.60 1010.88 1011.08 1011.19 1011.21 1011.18 1011.11 1011.04 1010.97 1010.89 1010.80 1010.67 1010.49 1010.25 1009.96 1009.65 1009.36 1009.10 1008.91 1008.79 1008.75 1008.76 1008.80 1008.86 1008.92 1008.98 1009.07 1009.19 1009.38 1009.65 1010.02 1010.46 1010.96 1011.48 1011.99 1012.45 1012.85 1013.20
1009.36 1009.42 1009.60 1009.87 1010.18 1010.46 1010.69 1010.84 1010.89 1010.86 1010.79 1010.71 1010.64 1010.58 1010.53 1010.48 1010.38 1010.22 1009.99 1009.71 1009.39 1009.05 1008.75 1008.50 1008.33 1008.23 1008.18 1008.18 1008.19 1008.22 1008.25 1008.32 1008.43 1008.61 1008.88 1009.25 1009.70 1010.21 1010.75 1011.28 1011.77 1012.21 1012.59
1009.66 1009.70 1009.84 1010.05 1010.29 1010.51 1010.66 1010.72 1010.71 1010.63 1010.53 1010.43 1010.35 1010.31 1010.29 1010.26 1010.19 1010.05 1009.83 1009.53 1009.17 1008.80 1008.44 1008.12 1007.88 1007.72 1007.61 1007.56 1007.54 1007.54 1007.56 1007.62 1007.73 1007.91 1008.18 1008.55 1009.01 1009.53 1010.08 1010.64 1011.16 1011.62 1012.04
1010.17 1010.18 1010.28 1010.43 1010.59 1010.72 1010.78 1010.76 1010.68 1010.54 1010.41 1010.29 1010.22 1010.19 1010.19 1010.18 1010.12 1009.98 1009.74 1009.41 1009.01 1008.57 1008.15 1007.76 1007.45 1007.22 1007.07 1006.97 1006.92 1006.91 1006.92 1006.98 1007.08 1007.27 1007.55 1007.92 1008.38 1008.91 1009.49 1010.06 1010.61 1011.11 1011.56
1010.80 1010.79 1010.85 1010.94 1011.02 1011.06 1011.03 1010.94 1010.78 1010.59 1010.42 1010.29 1010.22 1010.19 1010.20 1010.19 1010.12 1009.96 1009.69 1009.32 1008.86 1008.36 1007.87 1007.42 1007.04 1006.76 1006.56 1006.43 1006.36 1006.33 1006.34 1006.39 1006.50 1006.69 1006.97 1007.35 1007.82 1008.36 1008.95 1009.55 1010.13 1010.67 1011.17
1011.47 1011.44 1011.46 1011.49 1011.50 1011.46 1011.35 1011.17 1010.95 1010.71 1010.51 1010.36 1010.27 1010.24 1010.24 1010.21 1010.12 1009.93 1009.63 1009.20 1008.70 1008.14 1007.59 1007.09 1006.67 1006.34 1006.10 1005.95 1005.86 1005.82 1005.82 1005.87 1005.98 1006.17 1006.45 1006.83 1007.30 1007.86 1008.46 1009.09 1009.70 1010.29 1010.83
1012.09 1012.05 1012.03 1012.00 1011.94 1011.82 1011.62 1011.38 1011.09 1010.81 1010.57 1010.40 1010.29 1010.24 1010.21 1010.16 1010.04 1009.82 1009.47 1009.01 1008.47 1007.88 1007.30 1006.77 1006.32 1005.97 1005.72 1005.55 1005.44 1005.39 1005.38 1005.42 1005.52 1005.71 1005.98 1006.36 1006.84 1007.40 1008.02 1008.67 1009.33 1009.96 1010.55
1012.59 1012.52 1012.46 1012.38 1012.24 1012.05 1011.78 1011.47 1011.13 1010.81 1010.53 1010.32 1010.19 1010.11 1010.04 1009.96 1009.80 1009.54 1009.17 1008.69 1008.14 1007.55 1006.97 1006.44 1006.00 1005.66 1005.40 1005.23 1005.11 1005.05 1005.03 1005.05 1005.14 1005.31 1005.58 1005.95 1006.43 1007.00 1007.64 1008.32 1009.01 1009.68 1010.32
1012.92 1012.82 1012.71 1012.57 1012.37 1012.11 1011.77 1011.40 1011.01 1010.64 1010.32 1010.08 1009.90 1009.78 1009.68 1009.55 1009.36 1009.08 1008.70 1008.23 1007.69 1007.14 1006.60 1006.11 1005.71 1005.39 1005.16 1004.99 1004.88 1004.81 1004.77 1004.78 1004.86 1005.01 1005.27 1005.64 1006.11 1006.69 1007.35 1008.05 1008.76 1009.47 1010.14
1013.08 1012.94 1012.78 1012.57 1012.31 1011.98 1011.59 1011.16 1010.72 1010.31 1009.95 1009.66 1009.44 1009.27 1009.11 1008.95 1008.73 1008.44 1008.07 1007.63 1007.15 1006.65 1006.19 1005.78 1005.44 1005.18 1004.98 1004.84 1004.74 1004.66 1004.62 1004.62 1004.68 1004.83 1005.08 1005.45 1005.93 1006.51 1007.17 1007.89 1008.62 1009.34 1010.04
1013.10 1012.91 1012.69 1012.43 1012.11 1011.72 1011.28 1010.81 1010.33 1009.87 1009.47 1009.13 1008.85 1008.63 1008.42 1008.22 1007.98 1007.68 1007.33 1006.94 1006.53 1006.12 1005.75 1005.43 1005.18 1004.99 1004.85 1004.75 1004.67 1004.61 1004.57 1004.58 1004.64 1004.79 1005.04 1005.41 1005.90 1006.49 1007.16 1007.87 1008.60 1009.32 1010.01
1013.03 1012.79 1012.52 1012.21 1011.84 1011.42 1010.94 1010.43 1009.91 1009.42 1008.97 1008.58 1008.26 1007.97 1007.71 1007.46 1007.20 1006.90 1006.58 1006.24 1005.90 1005.59 1005.31 1005.10 1004.94 1004.83 1004.75 1004.70 1004.66 1004.63 1004.62 1004.64 1004.72 1004.89 1005.16 1005.55 1006.04 1006.64 1007.31 1008.01 1008.72 1009.42 1010.09
1012.95 1012.67 1012.36 1012.01 1011.61 1011.15 1010.65 1010.12 1009.58 1009.06 1008.57 1008.14 1007.75 1007.41 1007.10 1006.80 1006.50 1006.20 1005.89 1005.60 1005.33 1005.09 1004.91 1004.79 1004.71 1004.68 1004.68 1004.68 1004.69 1004.70 1004.73 1004.79 1004.91 1005.11 1005.41 1005.83 1006.34 1006.94 1007.60 1008.29 1008.97 1009.63 1010.25
1012.91 1012.60 1012.26 1011.89 1011.47 1011.00 1010.49 1009.95 1009.40 1008.85 1008.34 1007.86 1007.42 1007.03 1006.66 1006.31 1005.97 1005.66 1005.36 1005.09 1004.86 1004.69 1004.58 1004.53 1004.53 1004.57 1004.62 1004.68 1004.74 1004.81 1004.89 1005.00 1005.17 1005.42 1005.77 1006.21 1006.74 1007.35 1007.99 1008.65 1009.29 1009.90 1010.46
1012.96 1012.64 1012.29 1011.91 1011.49 1011.02 1010.51 1009.97 1009.41 1008.85 1008.31 1007.80 1007.32 1006.87 1006.44 1006.05 1005.67 1005.33 1005.02 1004.76 1004.56 1004.42 1004.36 1004.35 1004.40 1004.49 1004.59 1004.70 1004.82 1004.94 1005.07 1005.24 1005.47 1005.77 1006.16 1006.63 1007.18 1007.78 1008.41 1009.04 1009.64 1010.19 1010.70
1013.12 1012.80 1012.45 1012.08 1011.66 1011.20 1010.70 1010.16 1009.60 1009.04 1008.48 1007.94 1007.43 1006.93 1006.46 1006.02 1005.60 1005.23 1004.90 1004.63 1004.44 1004.31 1004.26 1004.28 1004.35 1004.47 1004.61 1004.76 1004.91 1005.08 1005.26 1005.49 1005.76 1006.11 1006.53 1007.02 1007.58 1008.17 1008.78 1009.37 1009.92 1010.43 1010.88
1013.39 1013.08 1012.74 1012.38 1011.97 1011.52 1011.02 1010.49 1009.93 1009.37 1008.80 1008.24 1007.70 1007.17 1006.67 1006.19 1005.75 1005.35 1005.00 1004.71 1004.50 1004.37 1004.32 1004.34 1004.42 1004.54 1004.69 1004.86 1005.04 1005.24 1005.46 1005.72 1006.03 1006.40 1006.83 1007.33 1007.87 1008.44 1009.02 1009.57 1010.08 1010.54 1010.96
1013.74 1013.44 1013.13 1012.77 1012.37 1011.92 1011.42 1010.89 1010.34 1009.77 1009.19 1008.62 1008.07 1007.53 1007.01 1006.52 1006.06 1005.64 1005.28 1004.98 1004.76 1004.61 1004.54 1004.54 1004.60 1004.72 1004.86 1005.03 1005.22 1005.43 1005.66 1005.93 1006.24 1006.61 1007.03 1007.50 1008.01 1008.54 1009.07 1009.58 1010.05 1010.48 1010.87
1014.13 1013.86 1013.55 1013.20 1012.80 1012.34 1011.84 1011.31 1010.74 1010.17 1009.59 1009.02 1008.47 1007.93 1007.42 1006.94 1006.48 1006.07 1005.70 1005.40 1005.16 1005.00 1004.91 1004.89 1004.93 1005.01 1005.14 1005.29 1005.47 1005.66 1005.88 1006.13 1006.42 1006.75 1007.13 1007.55 1008.00 1008.46 1008.94 1009.39 1009.82 1010.22 1010.59
1014.52 1014.26 1013.96 1013.61 1013.20 1012.73 1012.22 1011.68 1011.10 1010.53 1009.95 1009.39 1008.86 1008.34 1007.85 1007.39 1006.96 1006.57 1006.22 1005.93 1005.69 1005.51 1005.40 1005.35 1005.36 1005.42 1005.51 1005.63 1005.78 1005.94 1006.12 1006.33 1006.56 1006.83 1007.14 1007.48 1007.85 1008.24 1008.63 1009.03 1009.41 1009.78 1010.13
Thickness
5715 5713 5711 5709 5707 5706 5705 5703 5702 5701 5700 5698 5697 5696 5695 5694 5693 5693 5693 5693 5692 5692 5692 5692 5692 5692 5691 5691 5690 5690 5690 5690 5690 5690 5689 5689 5689 5689 5689 5690 5690 5691 5691
5711 5709 5707 5705 5704 5703 5702 5700 5699 5697 5696 5695 5694 5693 5692 5691 5690 5690 5689 5689 5689 5689 5689 5689 5689 5688 5688 5688 5687 5687 5687 5687 5687 5687 5687 5686 5686 5686 5686 5686 5686 5687 5687
5708 5706 5704 5702 5701 5700 5699 5697 5696 5694 5693 5692 5690 5689 5688 5687 5687 5687 5686 5686 5685 5685 5686 5686 5685 5685 5684 5684 5684 5684 5684 5684 5684 5684 5684 5684 5683 5683 5683 5683 5682 5682 5683
5703 5701 5700 5699 5698 5697 5696 5694 5692 5690 5689 5687 5686 5685 5685 5684 5684 5683 5683 5682 5682 5681 5682 5682 5681 5681 5681 5681 5681 5681 5681 5681 5680 5680 5680 5680 5680 5680 5680 5679 5679 5679 5679
5699 5697 5696 5695 5695 5693 5692 5690 5688 5686 5684 5683 5682 5682 5681 5680 5680 5680 5679 5679 5678 5678 5677 5677 5677 5677 5677 5677 5678 5678 5678 5677 5677 5677 5677 5677 5676 5676 5675 5675 5675 5675 5675
5694 5693 5692 5691 5690 5689 5687 5686 5684 5682 5680 5679 5678 5677 5677 5676 5676 5675 5675 5675 5674 5674 5673 5673 5672 5672 5673 5673 5673 5674 5674 5674 5674 5673 5673 5673 5672 5672 5671 5671 5671 5670 5670
5690 5688 5688 5687 5686 5684 5683 5681 5680 5677 5675 5674 5672 5670 5671 5672 5671 5671 5671 5670 5670 5669 5668 5668 5667 5667 5667 5668 5668 5668 5669 5670 5670 5669 5669 5668 5668 5668 5667 5667 5666 5666 5666
5687 5686 5685 5683 5682 5680 5678 5677 5675 5672 5670 5669 5666 5663 5661 5663 5665 5666 5665 5665 5664 5664 5663 5663 5662 5662 5662 5662 5663 5663 5663 5664 5664 5665 5664 5664 5663 5663 5663 5662 5662 5662 5662
5683 5683 5681 5679 5678 5676 5674 5673 5671 5669 5665 5663 5661 5658 5654 5653 5655 5659 5659 5659 5658 5658 5657 5657 5657 5656 5656 5656 5656 5657 5658 5658 5658 5659 5659 5659 5659 5659 5658 5658 5658 5657 5657
5680 5678 5677 5675 5673 5672 5670 5669 5667 5664 5661 5658 5655 5654 5652 5651 5647 5649 5652 5652 5652 5652 5652 5652 5651 5651 5650 5650 5650 5651 5651 5652 5652 5653 5653 5654 5654 5653 5653 5653 5653 5653 5653
5675 5674 5673 5671 5669 5667 5666 5664 5662 5659 5657 5654 5651 5649 5647 5644 5643 5641 5642 5644 5645 5646 5646 5645 5645 5645 5645 5644 5645 5645 5645 5646 5646 5647 5647 5648 5648 5648 5648 5648 5648 5648 5648
5669 5669 5669 5668 5666 5664 5661 5659 5658 5655 5653 5651 5648 5645 5642 5641 5638 5636 5635 5635 5636 5639 5639 5640 5639 5639 5639 5638 5638 5638 5639 5639 5640 5640 5641 5641 5642 5642 5642 5642 5643 5643 5644
5663 5664 5665 5664 5662 5660 5658 5656 5653 5651 5649 5647 5644 5642 5640 5638 5635 5632 5630 5629 5629 5631 5632 5634 5634 5633 5632 5632 5632 5632 5632 5633 5633 5634 5634 5635 5636 5636 5637 5637 5637 5638 5639
5659 5660 5660 5659 5658 5656 5654 5652 5649 5648 5645 5643 5641 5639 5636 5635 5632 5629 5626 5624 5623 5624 5625 5627 5627 5627 5626 5625 5626 5626 5626 5627 5627 5627 5628 5628 5629 5630 5630 5631 5632 5633 5633
5657 5657 5656 5655 5653 5651 5650 5648 5645 5644 5642 5640 5638 5635 5633 5631 5628 5626 5622 5620 5617 5617 5620 5621 5620 5621 5620 5619 5620 5619 5620 5620 5621 5621 5621 5622 5622 5622 5623 5624 5625 5626 5627
5653 5652 5651 5650 5648 5647 5646 5644 5642 5640 5638 5636 5634 5631 5629 5627 5624 5621 5617 5614 5612 5610 5611 5614 5613 5614 5613 5613 5613 5613 5613 5613 5614 5615 5615 5615 5615 5616 5616 5617 5618 5619 5621
5649 5648 5647 5645 5644 5643 5642 5639 5638 5636 5634 5632 5629 5627 5625 5623 5619 5616 5613 5610 5607 5604 5604 5608 5607 5607 5606 5606 5606 5606 5606 5606 5608 5608 5609 5609 5609 5610 5610 5611 5611 5612 5613
5645 5645 5643 5642 5640 5639 5637 5635 5633 5632 5630 5628 5626 5623 5621 5618 5615 5613 5609 5606 5604 5601 5598 5600 5601 5601 5600 5599 5599 5599 5600 5601 5601 5603 5603 5604 5604 5604 5604 5604 5605 5605 5606
5642 5641 5640 5638 5637 5635 5633 5631 5630 5628 5626 5623 5621 5619 5617 5614 5611 5609 5606 5603 5600 5598 5594 5593 5594 5593 5593 5593 5592 5593 5594 5594 5595 5597 5598 5598 5598 5598 5598 5598 5598 5598 5599
5639 5637 5636 5634 5633 5632 5630 5628 5626 5624 5621 5619 5617 5615 5613 5610 5608 5606 5603 5600 5597 5593 5590 5587 5587 5586 5586 5585 5584 5586 5588 5588 5589 5590 5590 5591 5591 5590 5590 5591 5592 5592 5592
5635 5634 5632 5631 5629 5628 5627 5625 5623 5621 5618 5616 5614 5612 5610 5608 5605 5602 5599 5596 5593 5589 5585 5582 5581 5580 5579 5578 5577 5577 5579 5581 5582 5582 5582 5584 5583 5583 5583 5583 5584 5584 5584
5631 5630 5629 5628 5626 5626 5624 5622 5620 5618 5616 5613 5611 5609 5607 5604 5601 5598 5595 5592 5589 5584 5580 5577 5575 5573 5573 5571 5570 5569 5569 5570 5574 5575 5572 5575 5575 5575 5575 5575 5576 5576 5576
5629 5627 5626 5625 5624 5623 5621 5619 5618 5615 5612 5610 5607 5605 5603 5601 5597 5594 5591 5588 5584 5580 5576 5572 5570 5568 5566 5565 5562 5562 5561 5561 5562 5564 5562 5566 5567 5566 5567 5568 5568 5568 5568
5626 5625 5624 5623 5621 5620 5619 5617 5615 5612 5610 5607 5604 5602 5599 5596 5593 5589 5586 5583 5579 5576 5572 5568 5565 5562 5560 5557 5554 5553 5552 5552 5554 5555 5553 5555 5558 5558 5559 5559 5560 5560 5560
5625 5624 5622 5621 5620 5619 5617 5614 5612 5610 5607 5604 5602 5599 5595 5592 5588 5585 5581 5576 5573 5570 5567 5563 5559 5556 5553 5550 5547 5545 5544 5544 5546 5548 5545 5544 5547 5548 5551 5552 5552 5552 5552
5623 5622 5621 5619 5618 5616 5615 5612 5609 5607 5604 5602 5599 5596 5592 5588 5583 5579 5575 5570 5567 5564 5560 5557 5554 5550 5547 5544 5540 5537 5535 5534 5535 5537 5537 5534 5536 5536 5541 5544 5543 5544 5544